Dades meteomassalio
Diari Summary for Juny 2, 2017 Units:  Metric    English   Both
« Previous Day
Next Day »
Diari Semanal Mensual Anual Personalitzat
  Maxima: Minima: Mijana:
Temperatura: -17.8 °C -9 °C -5.4 °C
Rosada: -17.8 °C -10.4 °C -9.2 °C
Humitat: Humidity % 34 % 68 %
Velocitat del vent: 0 km/h 0 km/h 9 km/h
Racha vent: 0 km/h - -
Vent:- - SSE
Pressio: 0 hPa 34313.7 hPa -
Pluja: 180.34 mm    
Historical Graphs
 
 
Tabular Data for Juny 2, 2017
Time Temperature Dew Point Pressure Wind Wind Speed Wind Gust Humidity Rainfall Rate (Hourly) solar Conditions
-17.8 °C -17.8 °C 0 hPa Calm     Humidity % 0 mm SolarRadiationWatts/m^2 W/m2 Conditions
00:04 -6.2 °C -9.6 °C 34442.4 hPa Calm     68 % 0 mm 0.0 W/m2 CLR
00:09 -6.3 °C -9.7 °C 34442.4 hPa Calm     68 % 0 mm 0.0 W/m2 CLR
00:14 -6.3 °C -9.7 °C 34442.4 hPa Calm     68 % 0 mm 0.0 W/m2 CLR
00:19 -6.4 °C -9.8 °C 34428.8 hPa Calm     68 % 0 mm 0.0 W/m2 CLR
00:24 -6.4 °C -9.7 °C 34428.8 hPa Calm     69 % 0 mm 0.0 W/m2 CLR
00:29 -6.4 °C -9.7 °C 34442.4 hPa Calm     69 % 0 mm 0.0 W/m2 CLR
00:34 -6.4 °C -9.7 °C 34442.4 hPa Calm     69 % 0 mm 0.0 W/m2 CLR
00:39 -6.5 °C -9.8 °C 34442.4 hPa Calm     69 % 0 mm 0.0 W/m2 CLR
00:44 -6.6 °C -9.7 °C 34442.4 hPa Calm     70 % 0 mm 0.0 W/m2 CLR
00:49 -6.6 °C -9.6 °C 34442.4 hPa Calm     71 % 0 mm 0.0 W/m2 CLR
00:50 -6.6 °C -9.6 °C 34442.4 hPa Calm     71 % 0 mm 0.0 W/m2 CLR
00:55 -6.7 °C -9.6 °C 34442.4 hPa Calm     72 % 0 mm 0.0 W/m2 CLR
00:56 -6.7 °C -9.6 °C 34442.4 hPa Calm     72 % 0 mm 0.0 W/m2 CLR
01:01 -6.7 °C -9.5 °C 34442.4 hPa ESE 9 km/h 9 km/h 73 % 0 mm 0.0 W/m2 CLR
01:06 -6.8 °C -9.6 °C 34442.4 hPa ESE 12.9 km/h 12.9 km/h 73 % 0 mm 0.0 W/m2 CLR
01:11 -6.8 °C -9.5 °C 34442.4 hPa Calm     74 % 0 mm 0.0 W/m2 CLR
01:16 -6.8 °C -9.5 °C 34442.4 hPa Calm     74 % 0 mm 0.0 W/m2 CLR
01:21 -6.9 °C -9.6 °C 34442.4 hPa Calm     74 % 0 mm 0.0 W/m2 CLR
01:26 -6.9 °C -9.6 °C 34442.4 hPa Calm     74 % 0 mm 0.0 W/m2 CLR
01:31 -6.9 °C -9.6 °C 34442.4 hPa Calm     74 % 0 mm 0.0 W/m2 CLR
01:36 -6.9 °C -9.6 °C 34442.4 hPa Calm     74 % 0 mm 0.0 W/m2 CLR
01:41 -7 °C -9.6 °C 34442.4 hPa Calm     74 % 0 mm 0.0 W/m2 CLR
01:46 -7.1 °C -9.7 °C 34442.4 hPa Calm     74 % 0 mm 0.0 W/m2 CLR
01:51 -7.1 °C -9.6 °C 34428.8 hPa ESE 11.9 km/h 11.9 km/h 75 % 0 mm 0.0 W/m2 CLR
01:56 -7 °C -9.6 °C 34428.8 hPa ESE 6 km/h   75 % 0 mm 0.0 W/m2 CLR
02:01 -7.1 °C -9.6 °C 34428.8 hPa Calm     75 % 0 mm 0.0 W/m2 CLR
02:06 -7.1 °C -9.6 °C 34428.8 hPa Calm     75 % 0 mm 0.0 W/m2 CLR
02:11 -7.1 °C -9.6 °C 34428.8 hPa Calm     76 % 0 mm 0.0 W/m2 CLR
02:16 -7.1 °C -9.6 °C 34428.8 hPa Calm     76 % 0 mm 0.0 W/m2 CLR
02:21 -7.2 °C -9.8 °C 34428.8 hPa Calm     74 % 0 mm 0.0 W/m2 CLR
02:26 -7.3 °C -9.8 °C 34428.8 hPa Calm     75 % 0 mm 0.0 W/m2 CLR
02:31 -7.4 °C -9.8 °C 34428.8 hPa Calm     76 % 0 mm 0.0 W/m2 CLR
02:36 -7.4 °C -9.9 °C 34428.8 hPa Calm     75 % 0 mm 0.0 W/m2 CLR
02:41 -7.6 °C -9.9 °C 34428.8 hPa Calm     76 % 0 mm 0.0 W/m2 CLR
02:46 -7.6 °C -10 °C 34418.7 hPa Calm     76 % 0 mm 0.0 W/m2 CLR
02:51 -7.7 °C -10.1 °C 34418.7 hPa Calm     77 % 0 mm 0.0 W/m2 CLR
02:56 -7.8 °C -10 °C 34418.7 hPa Calm     78 % 0 mm 0.0 W/m2 CLR
03:01 -7.9 °C -10.1 °C 34418.7 hPa Calm     78 % 0 mm 0.0 W/m2 CLR
03:06 -7.9 °C -9.9 °C 34418.7 hPa Calm     79 % 0 mm 0.0 W/m2 CLR
03:11 -7.9 °C -10 °C 34418.7 hPa Calm     79 % 0 mm 0.0 W/m2 CLR
03:16 -8 °C -10.2 °C 34418.7 hPa Calm     78 % 0 mm 0.0 W/m2 CLR
03:21 -8.1 °C -10 °C 34418.7 hPa Calm     80 % 0 mm 0.0 W/m2 CLR
03:26 -8.1 °C -10.1 °C 34418.7 hPa Calm     80 % 0 mm 0.0 W/m2 CLR
03:31 -8.1 °C -10.1 °C 34418.7 hPa Calm     80 % 0 mm 0.0 W/m2 CLR
03:36 -8.2 °C -10.1 °C 34418.7 hPa Calm     80 % 0 mm 0.0 W/m2 CLR
03:41 -8.2 °C -10.2 °C 34418.7 hPa Calm     80 % 0 mm 0.0 W/m2 CLR
03:46 -8.3 °C -10.1 °C 34418.7 hPa Calm     81 % 0 mm 0.0 W/m2 CLR
03:51 -8.3 °C -10.2 °C 34418.7 hPa Calm     81 % 0 mm 0.0 W/m2 CLR
03:56 -8.4 °C -10.2 °C 34418.7 hPa Calm     81 % 0 mm 0.0 W/m2 CLR
04:01 -8.4 °C -10.2 °C 34418.7 hPa Calm     82 % 0 mm 0.0 W/m2 CLR
04:06 -8.4 °C -10.2 °C 34418.7 hPa Calm     82 % 0 mm 0.0 W/m2 CLR
04:11 -8.5 °C -10.2 °C 34418.7 hPa Calm     82 % 0 mm 0.0 W/m2 CLR
04:16 -8.6 °C -10.3 °C 34418.7 hPa Calm     82 % 0 mm 0.0 W/m2 CLR
04:21 -8.5 °C -10.1 °C 34418.7 hPa Calm     83 % 0 mm 0.0 W/m2 CLR
04:26 -8.6 °C -10.3 °C 34418.7 hPa Calm     82 % 0 mm 0.0 W/m2 CLR
04:31 -8.6 °C -10.2 °C 34418.7 hPa Calm     83 % 0 mm 0.0 W/m2 CLR
04:36 -8.6 °C -10.2 °C 34418.7 hPa Calm     83 % 0 mm 0.0 W/m2 CLR
04:41 -8.5 °C -10.1 °C 34418.7 hPa Calm     83 % 0 mm 0.0 W/m2 CLR
04:46 -8.6 °C -10.3 °C 34418.7 hPa Calm     82 % 0 mm 0.0 W/m2 CLR
04:52 -8.7 °C -10.4 °C 34418.7 hPa Calm     82 % 0 mm 0.0 W/m2 CLR
04:56 -8.7 °C -10.3 °C 34418.7 hPa Calm     83 % 0 mm 0.0 W/m2 CLR
05:01 -8.7 °C -10.2 °C 34418.7 hPa Calm     84 % 0 mm 0.0 W/m2 CLR
05:07 -8.7 °C -10.2 °C 34418.7 hPa Calm     84 % 0 mm 0.0 W/m2 CLR
05:12 -8.7 °C -10.2 °C 34418.7 hPa Calm     84 % 0 mm 0.0 W/m2 CLR
05:17 -8.8 °C -10.4 °C 34418.7 hPa Calm     83 % 0 mm 0.0 W/m2 CLR
05:22 -8.8 °C -10.4 °C 34418.7 hPa Calm     84 % 0 mm 0.0 W/m2 CLR
05:27 -8.8 °C -10.3 °C 34418.7 hPa Calm     84 % 0 mm 0.0 W/m2 CLR
05:32 -8.8 °C -10.3 °C 34418.7 hPa Calm     84 % 0 mm 0.0 W/m2 CLR
05:37 -8.8 °C -10.3 °C 34418.7 hPa Calm     84 % 0 mm 0.0 W/m2 CLR
05:42 -8.8 °C -10.2 °C 34418.7 hPa Calm     85 % 0 mm 0.0 W/m2 CLR
05:47 -8.7 °C -10.2 °C 34418.7 hPa Calm     84 % 0 mm 0.0 W/m2 CLR
05:52 -8.8 °C -10.3 °C 34418.7 hPa Calm     84 % 0 mm 0.0 W/m2 CLR
05:57 -8.8 °C -10.2 °C 34418.7 hPa Calm     85 % 0 mm 0.0 W/m2 CLR
06:02 -8.8 °C -10.2 °C 34418.7 hPa Calm     85 % 0 mm 0.0 W/m2 CLR
06:07 -8.8 °C -10.2 °C 34418.7 hPa Calm     85 % 0 mm 0.0 W/m2 CLR
06:12 -8.8 °C -10.1 °C 34418.7 hPa Calm     86 % 0 mm 0.0 W/m2 CLR
06:17 -8.8 °C -10.2 °C 34418.7 hPa Calm     86 % 0 mm 0.0 W/m2 CLR
06:22 -8.8 °C -10.2 °C 34418.7 hPa Calm     86 % 0 mm 0.0 W/m2 OVC
06:27 -8.8 °C -10.2 °C 34418.7 hPa Calm     86 % 0 mm 0.0 W/m2 OVC
06:32 -8.9 °C -10.2 °C 34418.7 hPa Calm     86 % 0 mm 5.0 W/m2 OVC
06:37 -8.9 °C -10.2 °C 34418.7 hPa Calm     86 % 0 mm 9.0 W/m2 BKN
06:42 -8.9 °C -10.2 °C 34418.7 hPa Calm     86 % 0 mm 12.0 W/m2 BKN
06:47 -8.9 °C -10.2 °C 34418.7 hPa Calm     87 % 0 mm 19.0 W/m2 BKN
06:52 -9 °C -10.2 °C 34418.7 hPa Calm     87 % 0 mm 23.0 W/m2 BKN
06:57 -9 °C -10.2 °C 34418.7 hPa Calm     87 % 0 mm 26.0 W/m2 BKN
07:02 -9 °C -10.2 °C 34428.8 hPa Calm     87 % 0 mm 28.0 W/m2 BKN
07:07 -9 °C -10.2 °C 34428.8 hPa Calm     87 % 0 mm 35.0 W/m2 BKN
07:12 -8.9 °C -10.1 °C 34418.7 hPa Calm     87 % 0 mm 40.0 W/m2 BKN
07:17 -8.8 °C -10.2 °C 34428.8 hPa Calm     86 % 0 mm 49.0 W/m2 SCT
07:22 -8.8 °C -10.2 °C 34428.8 hPa Calm     86 % 0 mm 58.0 W/m2 SCT
07:27 -8.8 °C -10.1 °C 34428.8 hPa Calm     86 % 0 mm 62.0 W/m2 SCT
07:32 -8.7 °C -10.1 °C 34428.8 hPa Calm     86 % 0 mm 62.0 W/m2 SCT
07:37 -8.7 °C -9.9 °C 34428.8 hPa Calm     86 % 0 mm 65.0 W/m2 SCT
07:42 -8.7 °C -9.9 °C 34428.8 hPa Calm     86 % 0 mm 74.0 W/m2 FEW
07:47 -8.6 °C -9.9 °C 34442.4 hPa Calm     86 % 0 mm 93.0 W/m2 FEW
07:52 -8.4 °C -9.8 °C 34442.4 hPa Calm     86 % 0 mm 151.0 W/m2 CLR
07:57 -8.3 °C -9.6 °C 34442.4 hPa Calm     86 % 0 mm 139.0 W/m2 CLR
08:02 -8.2 °C -9.6 °C 34442.4 hPa Calm     85 % 0 mm 204.0 W/m2 CLR
08:07 -7.9 °C -9.3 °C 34442.4 hPa Calm     85 % 0 mm 244.0 W/m2 CLR
08:12 -7.7 °C -9.3 °C 34442.4 hPa Calm     83 % 0 mm 246.0 W/m2 CLR
08:17 -7.6 °C -9.4 °C 34442.4 hPa Calm     81 % 0 mm 158.0 W/m2 CLR
08:22 -7.4 °C -9.2 °C 34442.4 hPa Calm     81 % 0 mm 283.0 W/m2 CLR
08:27 -7.1 °C -9.1 °C 34442.4 hPa Calm     80 % 0 mm 302.0 W/m2 CLR
08:32 -6.8 °C -9 °C 34442.4 hPa Calm     78 % 0 mm 276.0 W/m2 CLR
08:37 -6.6 °C -9 °C 34442.4 hPa Calm     76 % 0 mm 176.0 W/m2 CLR
08:42 -6.5 °C -9.1 °C 34442.4 hPa Calm     74 % 0 mm 142.0 W/m2 CLR
08:47 -6.4 °C -9 °C 34452.6 hPa Calm     75 % 0 mm 144.0 W/m2 CLR
08:52 -6.4 °C -9.1 °C 34452.6 hPa Calm     74 % 0 mm 281.0 W/m2 CLR
08:57 -6.3 °C -9.1 °C 34452.6 hPa Calm     73 % 0 mm 392.0 W/m2 CLR
09:02 -6.2 °C -9 °C 34452.6 hPa Calm     73 % 0 mm 462.0 W/m2 CLR
09:07 -6 °C -8.9 °C 34452.6 hPa Calm     72 % 0 mm 506.0 W/m2 CLR
09:12 -5.9 °C -9 °C 34452.6 hPa Calm     71 % 0 mm 397.0 W/m2 CLR
09:17 -5.8 °C -8.9 °C 34452.6 hPa Calm     70 % 0 mm 443.0 W/m2 CLR
09:22 -5.7 °C -9 °C 34452.6 hPa Calm     69 % 0 mm 146.0 W/m2 CLR
09:27 -5.7 °C -9 °C 34452.6 hPa Calm     69 % 0 mm 88.0 W/m2 CLR
09:37 -5.8 °C -8.8 °C 34442.4 hPa Calm     71 % 0 mm 56.0 W/m2 FEW
09:42 -5.9 °C -8.7 °C 34442.4 hPa Calm     73 % 12.7 mm 60.0 W/m2 RA
09:47 -6 °C -8.4 °C 34442.4 hPa Calm     76 % 12.7 mm 70.0 W/m2 RA
09:52 -6.1 °C -8.6 °C 34442.4 hPa Calm     76 % 20.32 mm 88.0 W/m2 RA
09:57 -6.2 °C -8.2 °C 34442.4 hPa Calm     79 % 20.32 mm 104.0 W/m2 CLR
10:02 -6.2 °C -8.1 °C 34452.6 hPa NW 29.8 km/h 29.8 km/h 81 % 20.32 mm 128.0 W/m2 CLR
10:07 -6.4 °C -8.4 °C 34452.6 hPa North 15 km/h 15 km/h 80 % 20.32 mm 153.0 W/m2 CLR
10:12 -6.3 °C -8.4 °C 34442.4 hPa Calm     79 % 20.32 mm 176.0 W/m2 CLR
10:17 -6.3 °C -8.4 °C 34442.4 hPa Calm     79 % 20.32 mm 193.0 W/m2 CLR
10:22 -6.1 °C -8.1 °C 34442.4 hPa NW 12.9 km/h 12.9 km/h 80 % 20.32 mm 216.0 W/m2 CLR
10:27 -6 °C -8.2 °C 34442.4 hPa Calm     78 % 20.32 mm 241.0 W/m2 CLR
10:32 -5.9 °C -8 °C 34442.4 hPa Calm     79 % 20.32 mm 271.0 W/m2 CLR
10:37 -5.8 °C -8.2 °C 34442.4 hPa Calm     76 % 20.32 mm 288.0 W/m2 CLR
10:42 -5.7 °C -8.1 °C 34442.4 hPa Calm     76 % 12.7 mm 301.0 W/m2 CLR
10:47 -5.6 °C -8.6 °C 34442.4 hPa Calm     72 % 7.62 mm 322.0 W/m2 CLR
10:52 -5.6 °C -8.4 °C 34442.4 hPa Calm     73 % 0 mm 339.0 W/m2 CLR
10:57 -5.5 °C -8.2 °C 34442.4 hPa Calm     74 % 0 mm 320.0 W/m2 CLR
11:02 -5.4 °C -8.3 °C 34442.4 hPa Calm     72 % 0 mm 334.0 W/m2 CLR
11:07 -5.3 °C -8.6 °C 34442.4 hPa Calm     69 % 0 mm 353.0 W/m2 CLR
11:12 -5.2 °C -8.6 °C 34442.4 hPa Calm     69 % 0 mm 388.0 W/m2 CLR
11:17 -5.2 °C -8.5 °C 34428.8 hPa Calm     69 % 0 mm 603.0 W/m2 CLR
11:22 -5.1 °C -8.4 °C 34442.4 hPa Calm     69 % 0 mm 482.0 W/m2 CLR
11:27 -4.9 °C -8.7 °C 34428.8 hPa Calm     66 % 0 mm 448.0 W/m2 CLR
11:32 -4.8 °C -8.6 °C 34442.4 hPa Calm     66 % 0 mm 417.0 W/m2 CLR
11:37 -4.7 °C -8.7 °C 34428.8 hPa Calm     64 % 0 mm 476.0 W/m2 CLR
11:42 -4.5 °C -8.4 °C 34428.8 hPa Calm     65 % 0 mm 466.0 W/m2 CLR
11:47 -4.3 °C -8.2 °C 34428.8 hPa Calm     65 % 0 mm 420.0 W/m2 CLR
11:52 -4.1 °C -8.2 °C 34428.8 hPa Calm     63 % 0 mm 432.0 W/m2 CLR
11:57 -3.8 °C -8.3 °C 34428.8 hPa Calm     61 % 0 mm 916.0 W/m2 CLR
12:02 -3.7 °C -8.6 °C 34428.8 hPa ENE 6 km/h   58 % 0 mm 937.0 W/m2 CLR
12:07 -3.5 °C -8.7 °C 34418.7 hPa SSE 6 km/h 6 km/h 56 % 0 mm 805.0 W/m2 CLR
12:12 -3.4 °C -8.5 °C 34418.7 hPa SE 11.9 km/h 11.9 km/h 57 % 0 mm 805.0 W/m2 CLR
12:17 -3.4 °C -8.3 °C 34418.7 hPa ESE 6 km/h   58 % 0 mm 432.0 W/m2 CLR
12:18 -3.4 °C -8.3 °C 34418.7 hPa ESE 6 km/h   58 % 0 mm 432.0 W/m2 CLR
12:23 -3.1 °C -8.4 °C 34418.7 hPa East 9 km/h 9 km/h 56 % 0 mm 932.0 W/m2 CLR
12:28 -2.9 °C -8.4 °C 34418.7 hPa Calm     55 % 0 mm 976.0 W/m2 CLR
12:33 -2.9 °C -8.7 °C 34418.7 hPa SE 9 km/h   53 % 0 mm 279.0 W/m2 CLR
12:38 -2.9 °C -8.5 °C 34418.7 hPa Calm     54 % 0 mm 362.0 W/m2 CLR
12:43 -2.9 °C -8.7 °C 34405.1 hPa Calm     53 % 0 mm 327.0 W/m2 CLR
12:48 -2.9 °C -8.7 °C 34405.1 hPa Calm     53 % 0 mm 415.0 W/m2 CLR
12:53 -2.7 °C -8.4 °C 34405.1 hPa Calm     54 % 0 mm 628.0 W/m2 CLR
12:58 -2.4 °C -8.4 °C 34405.1 hPa Calm   0.3 km/h 52 % 0 mm 373.0 W/m2 CLR
13:03 -2.3 °C -8.6 °C 34405.1 hPa Calm     50 % 0 mm 327.0 W/m2 CLR
13:08 -2.2 °C -8.5 °C 34405.1 hPa Calm     50 % 0 mm 649.0 W/m2 CLR
13:13 -2.1 °C -8.4 °C 34405.1 hPa Calm     50 % 0 mm 1025.0 W/m2 CLR
13:18 -2 °C -8.5 °C 34395 hPa Calm     49 % 0 mm 976.0 W/m2 CLR
13:23 -1.8 °C -9.2 °C 34395 hPa Calm     44 % 0 mm 784.0 W/m2 CLR
13:28 -1.6 °C -8.9 °C 34395 hPa Calm     45 % 0 mm 810.0 W/m2 CLR
13:33 -1.5 °C -8.7 °C 34395 hPa ESE 9 km/h 9 km/h 46 % 0 mm 715.0 W/m2 CLR
13:38 -1.6 °C -8.8 °C 34395 hPa North 3.1 km/h   45 % 0 mm 654.0 W/m2 CLR
13:43 -1.6 °C -8.8 °C 34384.8 hPa NE 5.1 km/h   45 % 0 mm 923.0 W/m2 CLR
13:48 -1.3 °C -8.7 °C 34384.8 hPa ENE 11.9 km/h 11.9 km/h 45 % 0 mm 926.0 W/m2 CLR
13:53 -1.1 °C -8.4 °C 34384.8 hPa ENE 6 km/h 6 km/h 45 % 0 mm 907.0 W/m2 CLR
13:58 -0.9 °C -8.5 °C 34384.8 hPa ENE 17.9 km/h 17.9 km/h 44 % 0 mm 911.0 W/m2 CLR
14:03 -0.9 °C -8.5 °C 34371.3 hPa ENE 9 km/h 9 km/h 44 % 0 mm 905.0 W/m2 CLR
14:08 -0.8 °C -8.6 °C 34371.3 hPa NE 6 km/h 6 km/h 43 % 0 mm 905.0 W/m2 CLR
14:13 -0.8 °C -9 °C 34371.3 hPa East 9 km/h 9 km/h 41 % 0 mm 905.0 W/m2 CLR
14:18 -0.8 °C -9 °C 34371.3 hPa East 23.3 km/h 23.3 km/h 41 % 0 mm 902.0 W/m2 CLR
14:23 -0.8 °C -9.4 °C 34361.1 hPa ENE 15 km/h 15 km/h 39 % 0 mm 905.0 W/m2 CLR
14:28 -0.7 °C -9.2 °C 34361.1 hPa Calm     40 % 0 mm 904.0 W/m2 CLR
14:33 -0.7 °C -8.8 °C 34361.1 hPa ENE 3.1 km/h 3.1 km/h 41 % 0 mm 893.0 W/m2 CLR
14:38 -0.4 °C -9.1 °C 34347.6 hPa NE 3.1 km/h   39 % 0 mm 886.0 W/m2 CLR
14:43 -0.2 °C -9.3 °C 34347.6 hPa ESE 20.9 km/h 20.9 km/h 37 % 0 mm 889.0 W/m2 CLR
14:48 -0.4 °C -9.6 °C 34347.6 hPa ESE 11.9 km/h 11.9 km/h 37 % 0 mm 891.0 W/m2 CLR
14:53 -0.4 °C -9.6 °C 34347.6 hPa East 23.3 km/h 23.3 km/h 37 % 0 mm 886.0 W/m2 CLR
14:58 -0.4 °C -9.3 °C 34347.6 hPa North 12.9 km/h 12.9 km/h 38 % 0 mm 879.0 W/m2 CLR
15:03 -0.3 °C -9.9 °C 34347.6 hPa ENE 11.9 km/h 11.9 km/h 35 % 0 mm 870.0 W/m2 CLR
15:08 -0.3 °C -9.9 °C 34337.4 hPa NE 9 km/h 9 km/h 35 % 0 mm 877.0 W/m2 CLR
15:13 -0.3 °C -10.2 °C 34337.4 hPa SE 15 km/h 15 km/h 34 % 0 mm 886.0 W/m2 CLR
15:18 -0.2 °C -10.1 °C 34337.4 hPa SSE 6 km/h   34 % 0 mm 881.0 W/m2 CLR
15:23 -0.1 °C -9.9 °C 34327.3 hPa ENE 11.9 km/h 11.9 km/h 34 % 0 mm 882.0 W/m2 CLR
15:28 0.1 °C -9.8 °C 34327.3 hPa ENE 32.8 km/h 32.8 km/h 34 % 0 mm 872.0 W/m2 CLR
15:33 0.2 °C -9.8 °C 34327.3 hPa ENE 15 km/h 15 km/h 34 % 0 mm 868.0 W/m2 CLR
15:38 0.3 °C -9.7 °C 34327.3 hPa NE 25.9 km/h 25.9 km/h 34 % 0 mm 849.0 W/m2 CLR
15:43 0.2 °C -9.8 °C 34327.3 hPa Calm     34 % 0 mm 921.0 W/m2 CLR
15:48 0.3 °C -9.7 °C 34327.3 hPa ENE 12.9 km/h 12.9 km/h 34 % 0 mm 909.0 W/m2 CLR
15:53 0.2 °C -9.7 °C 34327.3 hPa SSE 12.9 km/h 12.9 km/h 34 % 0 mm 860.0 W/m2 CLR
15:58 0.1 °C -9.8 °C 34327.3 hPa ENE 9 km/h 9 km/h 34 % 0 mm 861.0 W/m2 CLR
16:03 0.1 °C -9.6 °C 34327.3 hPa SSE 9 km/h 9 km/h 35 % 0 mm 867.0 W/m2 CLR
16:08 0 °C -9.7 °C 34327.3 hPa East 10.3 km/h 10.3 km/h 35 % 0 mm 867.0 W/m2 CLR
16:13 -0.1 °C -9.4 °C 34327.3 hPa ESE 15 km/h 15 km/h 36 % 0 mm 526.0 W/m2 CLR
16:18 -0.4 °C -9.5 °C 34327.3 hPa ESE 29.8 km/h 29.8 km/h 37 % 0 mm 195.0 W/m2 CLR
16:23 -0.9 °C -9.3 °C 34327.3 hPa SSW 29.8 km/h 29.8 km/h 40 % 0 mm 167.0 W/m2 CLR
16:28 -1.2 °C -8.7 °C 34337.4 hPa SSE 56.6 km/h 56.6 km/h 44 % 0 mm 156.0 W/m2 CLR
16:33 -1.7 °C -8.8 °C 34337.4 hPa SE 41.7 km/h 41.7 km/h 46 % 0 mm 139.0 W/m2 CLR
16:38 -2.1 °C -9.6 °C 34347.6 hPa SE 59.5 km/h 59.5 km/h 44 % 0 mm 135.0 W/m2 CLR
16:43 -2.8 °C -9.6 °C 34347.6 hPa SE 47.6 km/h 47.6 km/h 47 % 0 mm 102.0 W/m2 CLR
16:48 -3 °C -9.6 °C 34347.6 hPa SSE 29.8 km/h 29.8 km/h 48 % 0 mm 76.0 W/m2 CLR
16:53 -2.8 °C -9.7 °C 34337.4 hPa South 23.3 km/h 23.3 km/h 47 % 0 mm 63.0 W/m2 FEW
16:58 -2.7 °C -8.8 °C 34347.6 hPa SE 12.9 km/h 12.9 km/h 51 % 7.62 mm 74.0 W/m2 RA
17:03 -3.2 °C -8.8 °C 34337.4 hPa ENE 15.6 km/h 15.6 km/h 54 % 25.4 mm 95.0 W/m2 RA
17:08 -3.9 °C -8.5 °C 34337.4 hPa ENE 12.9 km/h 12.9 km/h 60 % 38.1 mm 74.0 W/m2 RA
17:13 -4.1 °C -8.3 °C 34347.6 hPa ENE 9 km/h 9 km/h 63 % 38.1 mm 53.0 W/m2 FEW
17:18 -4.2 °C -8.4 °C 34347.6 hPa ENE 15 km/h 15 km/h 63 % 38.1 mm 44.0 W/m2 SCT
17:23 -4.2 °C -9 °C 34347.6 hPa ENE 20.9 km/h 20.9 km/h 59 % 38.1 mm 54.0 W/m2 SCT
17:28 -4.2 °C -8.7 °C 34347.6 hPa ENE 17.9 km/h 17.9 km/h 61 % 38.1 mm 63.0 W/m2 SCT
17:33 -4.3 °C -8.8 °C 34337.4 hPa Calm     61 % 38.1 mm 70.0 W/m2 SCT
17:38 -4.4 °C -8.6 °C 34347.6 hPa SSE 33.6 km/h 33.6 km/h 63 % 38.1 mm 88.0 W/m2 FEW
17:44 -4.1 °C -8.3 °C 34337.4 hPa ENE 32.8 km/h 32.8 km/h 63 % 38.1 mm 116.0 W/m2 CLR
17:49 -3.9 °C -8.2 °C 34347.6 hPa SSE 26.9 km/h 26.9 km/h 63 % 38.1 mm 206.0 W/m2 CLR
17:54 -3.8 °C -7.9 °C 34347.6 hPa ENE 23.8 km/h 23.8 km/h 64 % 38.1 mm 243.0 W/m2 CLR
17:59 -3.7 °C -7.9 °C 34347.6 hPa SSW 29.8 km/h 29.8 km/h 63 % 33.02 mm 508.0 W/m2 CLR
18:04 -3.7 °C -8.2 °C 34347.6 hPa ENE 41.7 km/h 41.7 km/h 61 % 12.7 mm 385.0 W/m2 CLR
18:09 -3.7 °C -8.6 °C 34347.6 hPa South 35.7 km/h 35.7 km/h 58 % 0 mm 445.0 W/m2 CLR
18:14 -3.7 °C -8.7 °C 34337.4 hPa South 23.8 km/h 23.8 km/h 58 % 0 mm 359.0 W/m2 CLR
18:19 -3.8 °C -8.6 °C 34337.4 hPa SSW 15 km/h 15 km/h 59 % 0 mm 359.0 W/m2 CLR
18:24 -3.8 °C -9 °C 34337.4 hPa South 29.8 km/h 29.8 km/h 56 % 0 mm 359.0 W/m2 CLR
18:29 -3.7 °C -9.2 °C 34327.3 hPa South 23.8 km/h 23.8 km/h 54 % 0 mm 155.0 W/m2 CLR
18:34 -3.4 °C -9.5 °C 34327.3 hPa SSW 28.5 km/h 28.5 km/h 51 % 0 mm 188.0 W/m2 CLR
18:39 -3.1 °C -9.9 °C 34327.3 hPa SW 23.8 km/h 23.8 km/h 47 % 0 mm 142.0 W/m2 CLR
18:44 -2.9 °C -10.3 °C 34327.3 hPa South 47.6 km/h 47.6 km/h 44 % 0 mm 130.0 W/m2 CLR
18:49 -2.8 °C -10.4 °C 34327.3 hPa SSW 47.6 km/h 47.6 km/h 43 % 0 mm 132.0 W/m2 CLR
18:54 -2.9 °C -10.3 °C 34327.3 hPa South 62.6 km/h 62.6 km/h 44 % 0 mm 125.0 W/m2 CLR
18:59 -3.1 °C -10.1 °C 34327.3 hPa SSW 47.6 km/h 47.6 km/h 46 % 0 mm 127.0 W/m2 CLR
19:04 -3.3 °C -9.7 °C 34313.7 hPa SSW 31.1 km/h 31.1 km/h 49 % 0 mm 107.0 W/m2 CLR
19:09 -3.4 °C -9.6 °C 34313.7 hPa South 44.7 km/h 44.7 km/h 50 % 0 mm 111.0 W/m2 CLR
19:14 -3.4 °C -9.5 °C 34313.7 hPa SSW 44.7 km/h 44.7 km/h 51 % 0 mm 132.0 W/m2 CLR
19:19 -3.4 °C -9.6 °C 34313.7 hPa South 33.6 km/h 33.6 km/h 50 % 0 mm 185.0 W/m2 CLR
19:24 -3.2 °C -9.7 °C 34313.7 hPa SSW 53.6 km/h 53.6 km/h 49 % 0 mm 146.0 W/m2 CLR
19:29 -3.2 °C -9.4 °C 34313.7 hPa SSW 57 km/h 57 km/h 50 % 0 mm 132.0 W/m2 CLR
19:34 -3.2 °C -8.8 °C 34313.7 hPa SSW 32.8 km/h 32.8 km/h 54 % 0 mm 113.0 W/m2 CLR
19:39 -3.2 °C -8.9 °C 34327.3 hPa SSW 29.8 km/h 29.8 km/h 53 % 0 mm 70.0 W/m2 CLR
19:44 -3.1 °C -8.7 °C 34327.3 hPa SSW 20.9 km/h 20.9 km/h 54 % 0 mm 60.0 W/m2 FEW
19:49 -3.2 °C -8.9 °C 34337.4 hPa WSW 9 km/h 9 km/h 53 % 0 mm 40.0 W/m2 SCT
19:54 -3.1 °C -9.3 °C 34371.3 hPa WNW 23.8 km/h 23.8 km/h 50 % 0 mm 21.0 W/m2 BKN
19:59 -3.1 °C -9.1 °C 34384.8 hPa NNW 53.6 km/h 53.6 km/h 51 % 0 mm 23.0 W/m2 BKN
20:04 -3.7 °C -8.7 °C 34395 hPa North 44.7 km/h 44.7 km/h 58 % 7.62 mm 33.0 W/m2 RA
20:09 -4.2 °C -8.7 °C 34395 hPa NNW 47.6 km/h 47.6 km/h 61 % 7.62 mm 32.0 W/m2 BKN
20:14 -4.5 °C -8.7 °C 34395 hPa NNW 50.7 km/h 50.7 km/h 63 % 7.62 mm 30.0 W/m2 BKN
20:19 -4.7 °C -8.7 °C 34405.1 hPa North 32.8 km/h 32.8 km/h 64 % 7.62 mm 25.0 W/m2 BKN
20:24 -4.7 °C -8.7 °C 34405.1 hPa North 35.7 km/h 35.7 km/h 64 % 7.62 mm 19.0 W/m2 BKN
20:29 -4.8 °C -8.7 °C 34405.1 hPa North 33.6 km/h 33.6 km/h 65 % 7.62 mm 16.0 W/m2 BKN
20:34 -4.9 °C -8.7 °C 34405.1 hPa North 35.7 km/h 35.7 km/h 65 % 7.62 mm 9.0 W/m2 BKN
20:39 -4.9 °C -8.7 °C 34405.1 hPa NNW 29.8 km/h 29.8 km/h 66 % 7.62 mm 5.0 W/m2 OVC
20:44 -4.9 °C -8.6 °C 34405.1 hPa NW 26.9 km/h 26.9 km/h 67 % 7.62 mm 0.0 W/m2 OVC
20:49 -5.1 °C -8.4 °C 34405.1 hPa NW 18.2 km/h 18.2 km/h 69 % 7.62 mm 0.0 W/m2 OVC
20:54 -5.2 °C -8.3 °C 34418.7 hPa Calm     71 % 7.62 mm 0.0 W/m2 OVC
20:59 -5.4 °C -8.3 °C 34418.7 hPa North 7.7 km/h 7.7 km/h 72 % 12.7 mm 0.0 W/m2 RA
21:04 -5.5 °C -8.2 °C 34418.7 hPa NW 11.9 km/h 11.9 km/h 74 % 12.7 mm 0.0 W/m2 RA
21:09 -5.8 °C -8.2 °C 34418.7 hPa NW 20.9 km/h 20.9 km/h 76 % 20.32 mm 0.0 W/m2 RA
21:14 -5.9 °C -8.1 °C 34418.7 hPa Calm     79 % 25.4 mm 0.0 W/m2 RA
21:19 -6.2 °C -8 °C 34418.7 hPa Calm     81 % 33.02 mm 0.0 W/m2 RA
21:24 -6.3 °C -8 °C 34418.7 hPa Calm     82 % 33.02 mm 0.0 W/m2
21:29 -6.4 °C -7.9 °C 34428.8 hPa SW 12.9 km/h 12.9 km/h 84 % 38.1 mm 0.0 W/m2 RA
21:34 -6.5 °C -7.9 °C 34428.8 hPa WSW 7.7 km/h 7.7 km/h 86 % 38.1 mm 0.0 W/m2 RA
21:39 -6.6 °C -7.8 °C 34428.8 hPa Calm     87 % 38.1 mm 0.0 W/m2 CLR
21:44 -6.6 °C -7.9 °C 34428.8 hPa Calm     87 % 38.1 mm 0.0 W/m2 CLR
21:49 -6.7 °C -7.9 °C 34428.8 hPa Calm     87 % 38.1 mm 0.0 W/m2 CLR
21:54 -6.7 °C -7.8 °C 34428.8 hPa WSW 20.9 km/h 20.9 km/h 88 % 38.1 mm 0.0 W/m2 CLR
21:59 -6.7 °C -7.9 °C 34418.7 hPa SSW 11.9 km/h 11.9 km/h 88 % 38.1 mm 0.0 W/m2 RA
22:04 -6.7 °C -7.9 °C 34418.7 hPa SSW 10.3 km/h 10.3 km/h 88 % 38.1 mm 0.0 W/m2 RA
22:09 -6.8 °C -7.9 °C 34405.1 hPa Calm     88 % 33.02 mm 0.0 W/m2
22:14 -6.8 °C -7.9 °C 34405.1 hPa South 6 km/h   88 % 33.02 mm 0.0 W/m2 RA
22:19 -6.8 °C -7.9 °C 34405.1 hPa SSE 15 km/h 15 km/h 88 % 33.02 mm 0.0 W/m2 RA
22:24 -6.8 °C -7.9 °C 34405.1 hPa SE 15 km/h 15 km/h 88 % 33.02 mm 0.0 W/m2
22:29 -6.8 °C -7.9 °C 34405.1 hPa SSW 10.3 km/h 10.3 km/h 89 % 38.1 mm 0.0 W/m2 RA
22:34 -6.8 °C -7.9 °C 34395 hPa South 15 km/h 15 km/h 89 % 38.1 mm 0.0 W/m2 RA
22:39 -6.9 °C -8 °C 34395 hPa SSW 11.9 km/h   88 % 38.1 mm 0.0 W/m2 CLR
22:41 -6.9 °C -8 °C 34395 hPa South 3.1 km/h 3.1 km/h 88 % 38.1 mm 0.0 W/m2 CLR
22:46 -6.8 °C -8 °C 34405.1 hPa SSW 15.6 km/h 15.6 km/h 88 % 38.1 mm 0.0 W/m2 CLR
22:51 -6.8 °C -8 °C 34405.1 hPa West 15 km/h 15 km/h 87 % 38.1 mm 0.0 W/m2 CLR
22:56 -6.8 °C -8 °C 34418.7 hPa Calm     87 % 38.1 mm 0.0 W/m2 RA
23:01 -6.8 °C -8.1 °C 34418.7 hPa SW 9 km/h 9 km/h 86 % 38.1 mm 0.0 W/m2
23:06 -6.7 °C -8.1 °C 34428.8 hPa SW 11.9 km/h 11.9 km/h 85 % 33.02 mm 0.0 W/m2 CLR
23:11 -6.7 °C -8.1 °C 34428.8 hPa Calm     85 % 38.1 mm 0.0 W/m2 RA
23:16 -6.7 °C -8.2 °C 34428.8 hPa West 11.9 km/h 11.9 km/h 85 % 33.02 mm 0.0 W/m2
23:21 -6.7 °C -8.2 °C 34442.4 hPa Calm     85 % 25.4 mm 0.0 W/m2 CLR
23:26 -6.8 °C -8.2 °C 34452.6 hPa NE 7.7 km/h 7.7 km/h 86 % 12.7 mm 0.0 W/m2 CLR
23:31 -6.9 °C -8.2 °C 34452.6 hPa North 6 km/h   87 % 12.7 mm 0.0 W/m2 RA
23:36 -7 °C -8.1 °C 34452.6 hPa Calm     88 % 12.7 mm 0.0 W/m2 CLR
23:41 -7 °C -8.2 °C 34442.4 hPa East 5.1 km/h 5.1 km/h 88 % 20.32 mm 0.0 W/m2 RA
23:46 -7.1 °C -8.1 °C 34428.8 hPa ENE 11.9 km/h 11.9 km/h 89 % 33.02 mm 0.0 W/m2 RA
23:51 -7.1 °C -8.1 °C 34418.7 hPa Calm     89 % 38.1 mm 0.0 W/m2 RA
23:56 -7.1 °C -8.1 °C 34405.1 hPa ESE 15 km/h 15 km/h 90 % 38.1 mm 0.0 W/m2 CLR
Lo Temps de Massalio
Compliments of Weather Underground - 1.25 mb